sat.trackr.live / text

‹ back to catalog

STARLINK-33697

NORAD 63467 · 2025-070H

PAYLOAD ACTIVE UNKNOWN

§ Identity

Operator
Country
US
Launch date
2025-04-06
Launch site
AFETR
Launch vehicle
Mass (kg)
RCS (m²)

Purposes: comms

External: N2YO · Heavens-Above · Gunter

§ Orbital elements

Epoch: 2026-05-24T20:23:47.097888Z

Period
94.27 min
Inclination
43.0011°
Eccentricity
0.0002222
Mean motion
15.27598143 rev/d
Perigee alt
481.5 km
Apogee alt
484.5 km
Semi-major
6,861.1 km
B*
4.5755e-4
RAAN
189.7519°
Arg perigee
275.2312°
Mean anomaly
84.8286°
Rev number
6,462

§ Raw data

STARLINK-336971 63467U 25070H   26144.84985067  .00012357  00000+0  45755-3 0  99902 63467  43.0011 189.7519 0002222 275.2312  84.8286 15.27598143 64626

JSON: /api/v1/satellites/63467 · /tle

For live sub-satellite position, see the globe view (requires WebGL).

§ Visibility from observer

Set your observer location to see the next 7 days of passes ≥ 10°. The values pass through the URL so the page stays shareable.

No JS? Fill the form by hand. The geolocation button needs JavaScript.